Spokane Fairchild, WA

3:22 AM PDT on August 24, 2017 (GMT -0700)
Fairchild Air Force Base

Weather History for KSKA - March, 2013

Change the Weather History Date:

Saturday, March 2, 2013

  Actual Average Record
Temperature  
Mean Temperature 46 °F -  
Max Temperature 52 °F 40 °F 52 °F (2013)
Min Temperature 39 °F 25 °F 10 °F (2014)
Degree Days  
Heating Degree Days 20    
Moisture  
Dew Point 40 °F    
Average Humidity 85    
Maximum Humidity 100    
Minimum Humidity 69    
Precipitation  
Precipitation 0.00 in - - ()
Sea Level Pressure  
Sea Level Pressure 30.10 in    
Wind  
Wind Speed 8 mph (South)    
Max Wind Speed 18 mph    
Max Gust Speed 25 mph    
Visibility 10 miles    
Events Rain    
Averages and records for this station are not official NWS values.
T = Trace of Precipitation, MM = Missing Value Source: NWS Daily Summary

Daily Weather History Graph

Daily Weather History Graph

Search for Another Location

Airport or City:

Trip Planner

Search our weather history database for the weather conditions in past years. The results will help you decide how hot, cold, wet, or windy it might be!

Date:

Astronomy

Mar. 02, 2013 Rise Set
Actual Time 6:28 AM PST 5:37 PM PST
Civil Twilight 5:57 AM PST 6:08 PM PST
Nautical Twilight 5:22 AM PST 6:44 PM PST
Astronomical Twilight 4:46 AM PST 7:19 PM PST
Moon 11:49 PM PST (3/2) 8:34 AM PST (3/2)
Length of Visible Light 12h 10m
Length of Day
11h 08m
Waning Gibbous, 73% of the Moon is Illuminated
Mar 2
Waning Gibbous
Mar 4
Last Quarter
Mar 11
New
Mar 19
First Quarter
Mar 27
Full

Hourly Weather History & Observations

Time (PST) Temp. Windchill Dew Point Humidity Pressure Visibility Wind Dir Wind Speed Gust Speed Precip Events Conditions
12:15 AM 41.0 °F 39.0 °F 39.2 °F 93% 30.25 in 10.0 mi SE 3.5 mph - N/A   Clear
12:27 AM 41.0 °F - 39.2 °F 93% 30.26 in 10.0 mi SE 2.3 mph - N/A   Clear
12:36 AM 41.0 °F - 39.2 °F 93% 30.26 in 10.0 mi ESE 2.3 mph - N/A   Partly Cloudy
12:40 AM 41.0 °F - 39.2 °F 93% 30.26 in 10.0 mi ESE 1.2 mph - N/A   Partly Cloudy
12:55 AM 41.0 °F 39.0 °F 39.2 °F 93% 30.26 in 10.0 mi SE 3.5 mph - N/A   Partly Cloudy
12:58 AM 40.5 °F 37.3 °F 39.0 °F 95% 30.30 in 10.0 mi SE 4.6 mph - 0.00 in   Partly Cloudy
1:18 AM 39.2 °F 34.2 °F 39.2 °F 100% 30.25 in 10.0 mi SSE 6.9 mph - N/A   Clear
1:58 AM 40.5 °F 35.1 °F 39.6 °F 97% 30.27 in 10.0 mi SSE 8.1 mph - 0.00 in   Clear
2:58 AM 40.3 °F 34.9 °F 39.0 °F 95% 30.25 in 10.0 mi SSE 8.1 mph - N/A   Clear
3:58 AM 40.3 °F 34.4 °F 38.3 °F 93% 30.25 in 10.0 mi SSE 9.2 mph - N/A   Mostly Cloudy
4:58 AM 40.6 °F 34.8 °F 37.9 °F 90% 30.24 in 10.0 mi SSE 9.2 mph - N/A   Overcast
5:58 AM 40.3 °F 34.4 °F 37.8 °F 91% 30.22 in 10.0 mi SSE 9.2 mph - N/A   Overcast
6:58 AM 39.7 °F 33.2 °F 37.6 °F 92% 30.22 in 10.0 mi SSE 10.4 mph - N/A   Overcast
7:58 AM 41.5 °F 36.4 °F 38.3 °F 88% 30.21 in 10.0 mi SSE 8.1 mph - N/A   Overcast
8:58 AM 44.2 °F 39.7 °F 39.2 °F 82% 30.20 in 10.0 mi South 8.1 mph - N/A   Partly Cloudy
9:58 AM 46.6 °F - 40.5 °F 79% 30.17 in 10.0 mi SSE 9.2 mph - N/A   Mostly Cloudy
10:58 AM 48.6 °F - 41.4 °F 76% 30.15 in 10.0 mi South 15.0 mph - N/A   Mostly Cloudy
11:58 AM 50.7 °F - 41.9 °F 72% 30.11 in 10.0 mi SSE 12.7 mph - N/A   Scattered Clouds
12:58 PM 50.9 °F - 41.7 °F 71% 30.09 in 10.0 mi South 13.8 mph - N/A   Scattered Clouds
1:58 PM 51.4 °F - 41.9 °F 70% 30.06 in 10.0 mi South 12.7 mph - N/A   Partly Cloudy
2:58 PM 52.2 °F - 42.3 °F 69% 30.04 in 10.0 mi South 10.4 mph - N/A   Partly Cloudy
3:58 PM 50.9 °F - 41.9 °F 71% 30.02 in 10.0 mi South 11.5 mph - N/A   Overcast
4:58 PM 49.8 °F - 41.9 °F 74% 30.01 in 10.0 mi SSW 9.2 mph - N/A   Mostly Cloudy
5:58 PM 48.2 °F - 41.7 °F 78% 30.01 in 10.0 mi SSW 5.8 mph - N/A   Overcast
6:11 PM 48.2 °F - 42.8 °F 82% 29.96 in 10.0 mi South 8.1 mph - N/A Rain Light Rain
6:20 PM 48.2 °F - 41.0 °F 76% 29.96 in 10.0 mi South 10.4 mph - N/A   Mostly Cloudy
6:58 PM 47.7 °F - 41.9 °F 80% 29.99 in 10.0 mi SSW 15.0 mph - 0.00 in   Overcast
7:58 PM 46.2 °F 39.5 °F 41.7 °F 84% 29.96 in 10.0 mi South 16.1 mph 23.0 mph N/A   Overcast
8:58 PM 45.0 °F 38.2 °F 41.7 °F 88% 29.94 in 10.0 mi South 15.0 mph - N/A   Overcast
9:15 PM 44.6 °F 37.4 °F 41.0 °F 87% 29.89 in 10.0 mi South 16.1 mph 24.2 mph N/A   Overcast
9:24 PM 44.6 °F 36.9 °F 41.0 °F 87% 29.89 in 10.0 mi South 18.4 mph 24.2 mph N/A   Overcast
9:35 PM 44.6 °F 38.1 °F 41.0 °F 87% 29.89 in 10.0 mi SSW 13.8 mph - N/A   Scattered Clouds
9:52 PM 44.6 °F 37.2 °F 41.0 °F 87% 29.89 in 10.0 mi SSW 17.3 mph - N/A   Clear
9:58 PM 44.6 °F 36.9 °F 41.0 °F 87% 29.92 in 10.0 mi SSW 18.4 mph 25.3 mph 0.00 in   Clear
10:58 PM 42.6 °F 34.6 °F 39.6 °F 89% 29.91 in 10.0 mi SSW 17.3 mph - N/A   Mostly Cloudy
11:58 PM 40.5 °F 33.2 °F 36.7 °F 86% 29.90 in 10.0 mi SW 12.7 mph - N/A   Overcast